User: anonymous   Login
Location: Lynch Observatory
(39.9540°N, 75.1861°W)
Time: 20:23:28
(UTC-04:00)
Language:

CUTE 1.7 + AOD 2 - Orbit

View from above orbital plane
View from above orbital plane
View from above satellite
View from above satellite

Ground track
Ground track

The orbit data is extracted from the following two-line orbital elements,

1 32785U 08021C   24114.85271771  .00011757  00000-0  10523-2 0  9990
2 32785  97.7510  80.6805 0012814 139.2913 220.9268 14.95934873867426
Epoch (UTC): 23 April 2024 20:27:54
Eccentricity: 0.0012814
inclination: 97.7510°
perigee height: 570 km
apogee height: 588 km
right ascension of ascending node: 80.6805°
argument of perigee: 139.2913°
revolutions per day: 14.95934873
mean anomaly at epoch: 220.9268°
orbit number at epoch: 86742

The dashed part of the orbit path shows where the satellite is in the earth's shadow,  

DLR